WetterOnline ( https://www.wetteronline.de )

Wetter aktuell Schlotfeld

Aktuelles Wetter: Itzehoe (26m)

6-stündlich | Neueste Meldungen
Ortszeit Temperatur Wetter
Di, 23.07. 2:00 16.6° C leicht bewölkt
Mo, 22.07. 20:00 20.2° C bedeckt
Mo, 22.07. 14:00 17.9° C bewölkt
Mo, 22.07. 8:00 14.5° C bedeckt
Mo, 22.07. 2:00 11.4° C wolkig
So, 21.07. 20:00 18.2° C leicht bewölkt
So, 21.07. 14:00 20.7° C bewölkt
So, 21.07. 8:00 17.1° C wolkig
Ortszeit Temperatur Wetter
Di, 23.07. 2:30 16.1° C wolkenlos
Di, 23.07. 2:20 16.1° C wolkenlos
Di, 23.07. 2:10 16.2° C wolkenlos
Di, 23.07. 2:00 16.6° C leicht bewölkt
Di, 23.07. 1:40 16.3° C leicht bewölkt
Di, 23.07. 1:30 16.1° C bewölkt
Di, 23.07. 1:00 15.9° C bewölkt
Di, 23.07. 0:30 16.1° C leicht bewölkt
Di, 23.07. 0:00 16.9° C wolkenlos
Mo, 22.07. 23:30 17.9° C wolkenlos
Ortszeit Relative Feuchte Sichtweite
Di, 23.07. 2:00 96% 8 km
Mo, 22.07. 20:00 79% 35 km
Mo, 22.07. 14:00 79% 10 km
Mo, 22.07. 8:00 92% 20 km
Mo, 22.07. 2:00 98% 10 km
So, 21.07. 20:00 74% 45 km
So, 21.07. 14:00 67% 25 km
So, 21.07. 8:00 92% 11 km
Ortszeit Relative Feuchte Sichtweite
Di, 23.07. 2:30 98% 5.0 km
Di, 23.07. 2:20 98% -
Di, 23.07. 2:10 96% -
Di, 23.07. 2:00 96% 8 km
Di, 23.07. 1:40 97% -
Di, 23.07. 1:30 98% 8 km
Di, 23.07. 1:00 97% 4.9 km
Di, 23.07. 0:30 97% 0.6 km
Di, 23.07. 0:00 93% 8 km
Mo, 22.07. 23:30 92% 14 km
Ortszeit Niederschlagsmenge Niederschlagsart
Di, 23.07. 2:00 0.0 l/m2 in 6 Std. -
Mo, 22.07. 20:00 0.2 l/m2 in 12 Std. -
Mo, 22.07. 14:00 0.2 l/m2 in 6 Std. -
Mo, 22.07. 8:00 0.0 l/m2 in 12 Std. -
Mo, 22.07. 2:00 0.0 l/m2 in 6 Std. -
So, 21.07. 20:00 0.0 l/m2 in 12 Std. -
So, 21.07. 14:00 0.0 l/m2 in 6 Std. -
So, 21.07. 8:00 0.3 l/m2 in 12 Std. -
Ortszeit Niederschlagsmenge Niederschlagsart
Di, 23.07. 2:30 0.0 l/m2 in 1 Std. -
Di, 23.07. 2:20 keine Meldung -
Di, 23.07. 2:10 keine Meldung -
Di, 23.07. 2:00 0.0 l/m2 in 1 Std. -
Di, 23.07. 1:40 keine Meldung -
Di, 23.07. 1:30 0.0 l/m2 in 1 Std. -
Di, 23.07. 1:00 0.0 l/m2 in 1 Std. -
Di, 23.07. 0:30 0.0 l/m2 in 1 Std. -
Di, 23.07. 0:00 0.0 l/m2 in 1 Std. -
Mo, 22.07. 23:30 0.0 l/m2 in 1 Std. -
Ortszeit Stärke Spitze Richtung
km/h Bft. km/h Grad Sektor
Di, 23.07. 2:00 4 1 25 210° SW
Mo, 22.07. 20:00 7 2 32 310° NW
Mo, 22.07. 14:00 7 2 17 150° SO
Mo, 22.07. 8:00 4 1 7 200° S
Mo, 22.07. 2:00 4 1 22 220° SW
So, 21.07. 20:00 9 2 39 320° NW
So, 21.07. 14:00 11 2 43 290° W
So, 21.07. 8:00 11 2 25 240° SW
Ortszeit Stärke Spitze Richtung
km/h Bft. km/h Grad Sektor
Di, 23.07. 2:30 2 1 6 220° SW
Di, 23.07. 2:20 2 1 - 220° SW
Di, 23.07. 2:10 4 1 - 200° S
Di, 23.07. 2:00 4 1 7 210° SW
Di, 23.07. 1:40 4 1 - 200° S
Di, 23.07. 1:30 4 1 4 220° SW
Di, 23.07. 1:00 2 1 4 150° SO
Di, 23.07. 0:30 0 0 4 - -
Di, 23.07. 0:00 2 1 7 320° NW
Mo, 22.07. 23:30 4 1 7 240° SW
Ortszeit Untergrenze Bedeckung Gattung
total tief tief mittel hoch
Di, 23.07. 2:00 1020 m 2/8 2/8 - - -
Mo, 22.07. 20:00 510 m 8/8 8/8 - - -
Mo, 22.07. 14:00 1080 m 7/8 7/8 - - -
Mo, 22.07. 8:00 3600 m 8/8 8/8 - - -
Mo, 22.07. 2:00 <30 m 8/8 0/8 - - -
So, 21.07. 20:00 720 m 4/8 4/8 - - -
So, 21.07. 14:00 750 m 7/8 7/8 - - -
So, 21.07. 8:00 270 m 6/8 6/8 - - -
Ortszeit Bedeckungsgrad in Achtel und Wolkenuntergrenze
Di, 23.07. 2:30 keine Wolken
Di, 23.07. 2:20 keine Wolken
Di, 23.07. 2:10 keine Wolken
Di, 23.07. 2:00 2(1020m)
Di, 23.07. 1:40 4(990m)
Di, 23.07. 1:30 7(930m)
Di, 23.07. 1:00 7(930m)
Di, 23.07. 0:30 3(930m)
Di, 23.07. 0:00 keine Wolken
Mo, 22.07. 23:30 keine Wolken
Ortszeit Luftdruck NN (hPa) Tendenz (hPa in 3 Std.)
Di, 23.07. 2:00 1022 + 0,2
Mo, 22.07. 20:00 1021 - 0,2
Mo, 22.07. 14:00 1022 - 0,8
Mo, 22.07. 8:00 1022 - 0,4
Mo, 22.07. 2:00 1023 + 0,4
So, 21.07. 20:00 1021 + 0,9
So, 21.07. 14:00 1019 + 2,6
So, 21.07. 8:00 1014 + 2,0
Ortszeit Luftdruck NN (hPa) Tendenz (hPa in 3 Std.)
Di, 23.07. 2:30 1021 - 0,1
Di, 23.07. 2:20 1021 keine Meldung
Di, 23.07. 2:10 1022 keine Meldung
Di, 23.07. 2:00 1022 + 0,2
Di, 23.07. 1:40 1022 keine Meldung
Di, 23.07. 1:30 1022 + 0,5
Di, 23.07. 1:00 1022 + 0,4
Di, 23.07. 0:30 1022 + 0,5
Di, 23.07. 0:00 1022 + 0,4
Mo, 22.07. 23:30 1022 + 0,7
Ortszeit Schneehöhe (cm)
Di, 23.07. 2:00 -
Mo, 22.07. 20:00 -
Mo, 22.07. 14:00 -
Mo, 22.07. 8:00 -
Mo, 22.07. 2:00 -
So, 21.07. 20:00 -
So, 21.07. 14:00 -
So, 21.07. 8:00 -
Ortszeit Schneehöhe (cm)
Di, 23.07. 2:30 -
Di, 23.07. 2:20 -
Di, 23.07. 2:10 -
Di, 23.07. 2:00 -
Di, 23.07. 1:40 -
Di, 23.07. 1:30 -
Di, 23.07. 1:00 -
Di, 23.07. 0:30 -
Di, 23.07. 0:00 -
Mo, 22.07. 23:30 -
Link zu dieser Seite / Seite empfehlen

Das Wetter in ...